Location: Castelbiague
(43.0361°N, 0.9246°E)
Time: 14:26:23
(UTC+00:00)

Cosmos 2263 Rocket - Pass Details

Date: 17 June 2021
Orbit: 822 x 850 km, 71.0° (Epoch: 30 July)

Event Time Altitude Azimuth Distance (km) Brightness Sun altitude
Rises 20:30:49 0° 331° (NNW) 3,419 7.0 -8.3°
Reaches altitude 10° 20:33:18 10° 328° (NNW) 2,481 6.1 -8.7°
Maximum altitude 20:38:52 57° 251° (WSW) 998 2.8 -9.4°
Drops below altitude 10° 20:44:25 10° 174° (S) 2,467 4.2 -10.1°
Enters shadow 20:45:15 - 172° (S) 2,783 4.4 -10.2°
